STARLINK-36330, 67737

Orbit data source: Space-Track

STARLINK-36330, 67737 is a payload satellite owned by SpaceX/Seattle (US) in SSO that was launched on Wed, 11 Feb 2026 UTC via an FALCON 9 launch vehicle from the Air Force Western Test Range (AFWTR). Payload-class satellites include a variety of spacecraft equipped with specific instruments for various scientific and technological missions. These include communications satellites like Starlink; space stations such as the ISS; scientific satellites like the Hubble; Earth observation satellites from companies like Planet Labs, Umbra, and HawkEye 360; GPS; miniature CubeSats for education and research; and military/defense satellites.

Loading next visibility...
Identifier
67737, 2026-026S
Orbit
SSO
Country
Flag of USUS
Related business
Manufacturer
SpaceX/Seattle
Mission
Operational Commercial Communications
Bus & Motor
STARLINK V2MO, Unknown motor
Mass
575 kg wet, ~530 kg dry
Launch date (UTC)
2026-02-11 (3 months ago)
Launch vehicle
FALCON 9
Launch site
Air Force Western Test Range (AFWTR)
Object type
Payload
Rocket body
Debris
Shape & HBR
Box + 2 Pan, 17.7 m
Radar Cross Section
36.964 m²

Expand to show TLE details & history
Last TLE update: 9 hours ago

TLE from 9 hours ago
0 STARLINK-36330
1 67737U 26026S   26130.12607256  .00002125  00000-0  68103-4 0  9999
2 67737  97.2840 183.8995 0000914 105.0802 255.0542 15.33455075 13549
Epoch: 2026-05-10T03:01Z
TLE epoch observation values (Epoch: 2026-05-10T03:01:32.669Z)
Latitude
Longitude
-89.42025°
Altitude
468.787 km
Speed
7.632 km/s
True Right ascension
12h 15m 35s
True Declination
0° 00' 00"
Sunlit
Object was in full shadow at epoch
Visualization orbit readout
Latitude
Unknown
Longitude
Unknown
Altitude
Unknown
Speed
Unknown
Apparent Right ascension
Unknown
Apparent Declination
Unknown
Sunlit
N/A
Visualization observer readout
Local Sidereal Time
19:48:34
Azimuth
Unknown
Elevation
Unknown
Doppler factor
Unknown
Orbital elements
Apogee altitude
463.081 km
Perigee altitude
461.831 km
Semi-major axis
6,840.593 km
Eccentricity
0.00009
Inclination
97.284°
RAAN
183.8995°
Arg. of periapsis
105.0802°
True anomaly
255.04408°
Mean anomaly
255.0542°
Eccentric anomaly
255.04914°
Mean motion
3.83621 °/min
Orbital period
93.84 mins
BSTAR
0.000068103
Loading maneuver chart data...
Computing Atmospheric mass density...
Loading historical data...
Loading historical data...
Loading historical data...
Loading historical data...
Loading historical data...
Loading historical data...
Loading historical data...

Documentation

Showing up to 5 results
|